International Skating Union - Official Site

ISU World Allround Championships 2017
March 4-5, 2017

Draw | Lap Times | Index | Classification

Referee: Susan  SANDVIG-SHOBE  (USA)
Starter: Darrell  HAACK  (CAN)
StartTime: EndTime: Air Temp: Ice Temp: Humidity:
15:28 16:02 16.5℃ -10.7℃ 20%
Result 5000m Ladies
Rankings as of Mar 5 2017 5:24PM
Rank: No.: Name: Nation: Time: Behind: Points:
1 105 Martina  Sáblíková CZE CZE 6:54.57200m - 20.56 - (20.5)
600m - 52.41 - (31.8)
1000m - 1:24.94 - (32.5)
1400m - 1:57.94 - (33.0)
1800m - 2:30.94 - (33.0)
2200m - 3:03.81 - (32.8)
2600m - 3:36.90 - (33.0)
3000m - 4:10.13 - (33.2)
3400m - 4:43.48 - (33.3)
3800m - 5:16.35 - (32.8)
4200m - 5:49.45 - (33.1)
4600m - 6:22.14 - (32.6)
5000m - 6:54.57 - (32.4)
41.457
2 116 Ireen  Wüst NED NED 7:00.86200m - 20.55 - (20.5)
600m - 51.80 - (31.2)
1000m - 1:24.40 - (32.6)
1400m - 1:57.84 - (33.4)
1800m - 2:31.48 - (33.6)
2200m - 3:04.51 - (33.0)
2600m - 3:38.00 - (33.4)
3000m - 4:11.18 - (33.1)
3400m - 4:44.82 - (33.6)
3800m - 5:18.76 - (33.9)
4200m - 5:52.85 - (34.0)
4600m - 6:26.74 - (33.8)
5000m - 7:00.86 - (34.1)
6.29 42.086
3 113 Antoinette  de Jong NED NED 7:02.62200m - 20.74 - (20.7)
600m - 53.10 - (32.3)
1000m - 1:25.45 - (32.3)
1400m - 1:58.24 - (32.7)
1800m - 2:31.16 - (32.9)
2200m - 3:04.36 - (33.2)
2600m - 3:37.72 - (33.3)
3000m - 4:11.42 - (33.7)
3400m - 4:45.31 - (33.8)
3800m - 5:19.54 - (34.2)
4200m - 5:53.99 - (34.4)
4600m - 6:28.50 - (34.5)
5000m - 7:02.62 - (34.1)
8.05 42.262
4 127 Anna  Yurakova RUS RUS 7:04.15200m - 21.36 - (21.3)
600m - 54.04 - (32.6)
1000m - 1:27.43 - (33.3)
1400m - 2:00.75 - (33.3)
1800m - 2:34.19 - (33.4)
2200m - 3:07.45 - (33.2)
2600m - 3:41.15 - (33.7)
3000m - 4:14.74 - (33.5)
3400m - 4:48.71 - (33.9)
3800m - 5:22.58 - (33.8)
4200m - 5:56.42 - (33.8)
4600m - 6:30.23 - (33.8)
5000m - 7:04.15 - (33.9)
9.58 42.415
5 126 Natalia  Voronina RUS RUS 7:06.48200m - 20.85 - (20.8)
600m - 53.75 - (32.9)
1000m - 1:27.24 - (33.4)
1400m - 2:00.53 - (33.2)
1800m - 2:34.23 - (33.7)
2200m - 3:08.07 - (33.8)
2600m - 3:41.61 - (33.5)
3000m - 4:15.87 - (34.2)
3400m - 4:49.83 - (33.9)
3800m - 5:24.08 - (34.2)
4200m - 5:58.31 - (34.2)
4600m - 6:32.74 - (34.4)
5000m - 7:06.48 - (33.7)
11.91 42.648
6 111 Miho  Takagi JPN JPN 7:10.14200m - 21.19 - (21.1)
600m - 53.99 - (32.8)
1000m - 1:27.43 - (33.4)
1400m - 2:01.30 - (33.8)
1800m - 2:35.01 - (33.7)
2200m - 3:08.79 - (33.7)
2600m - 3:42.71 - (33.9)
3000m - 4:16.85 - (34.1)
3400m - 4:51.02 - (34.1)
3800m - 5:25.47 - (34.4)
4200m - 6:00.56 - (35.0)
4600m - 6:35.30 - (34.7)
5000m - 7:10.14 - (34.8)
15.57 43.014
7 124 Olga  Graf RUS RUS 7:12.17200m - 21.92 - (21.9)
600m - 55.72 - (55.7)
1000m - 1:29.59 - (33.8)
1400m - 2:03.16 - (33.5)
1800m - 2:36.87 - (33.7)
2200m - 3:10.87 - (34.0)
2600m - 3:45.05 - (34.1)
3000m - 4:19.07 - (34.0)
3400m - 4:53.47 - (34.4)
3800m - 5:28.06 - (34.5)
4200m - 6:02.71 - (34.6)
4600m - 6:37.40 - (34.6)
5000m - 7:12.17 - (34.7)
17.60 43.217
8 121 Natalia  Czerwonka POL POL 7:19.58200m - 21.20 - (21.2)
600m - 55.55 - (55.5)
1000m - 1:29.59 - (34.0)
1400m - 2:03.90 - (34.3)
1800m - 2:38.58 - (34.6)
2200m - 3:12.63 - (34.0)
2600m - 3:46.93 - (34.3)
3000m - 4:21.24 - (34.3)
3400m - 4:56.07 - (34.8)
3800m - 5:31.11 - (35.0)
4200m - 6:06.81 - (35.7)
4600m - 6:43.10 - (36.2)
5000m - 7:19.58 - (36.4)
25.01 43.958